When you browse on this site, cookies collect data to enhance your experience and personalize the content and advertising you see.
Visit our Privacy Policy to learn more. By continuing to use the site, you agree to this use of cookies and data.
  • In Slovakia
  • List of Countries
  • For 7 days
  • Water Temperature
  • Weather Map
  • Weather Widgets
  • user-avatar
    Login

    Hourly Weather Malanje

    Today, 26 February, Wednesday

    Time Temperature Precipitation Wind Pressure Humidity
    00:00 +21°C° 0 mm 1 mps 664 mmHg 97%
    01:00 +21°C° 0 mm 1 mps 664 mmHg 98%
    02:00 +21°C° 0.1 mm 1 mps 664 mmHg 98%
    03:00 +20°C° 0.1 mm 2 mps 664 mmHg 98%
    04:00 +20°C° 0.1 mm 2 mps 663 mmHg 98%
    05:00 +20°C° 0 mm 2 mps 664 mmHg 97%
    06:00 +22°C° 0 mm 1 mps 664 mmHg 96%
    07:00 +21°C° 0 mm 2 mps 665 mmHg 96%
    08:00 +24°C° 0.1 mm 1 mps 665 mmHg 88%
    09:00 +26°C° 0.1 mm 1 mps 666 mmHg 80%
    10:00 +27°C° 0.1 mm 1 mps 666 mmHg 72%
    11:00 +28°C° 0.2 mm 1 mps 666 mmHg 67%
    12:00 +29°C° 0.2 mm 2 mps 665 mmHg 63%
    13:00 +30°C° 0 mm 1 mps 665 mmHg 52%
    14:00 +29°C° 0 mm 2 mps 664 mmHg 55%
    15:00 +29°C° 0 mm 2 mps 664 mmHg 59%
    16:00 +29°C° 0 mm 2 mps 663 mmHg 62%
    17:00 +27°C° 0.1 mm 2 mps 663 mmHg 72%
    18:00 +25°C° 0.1 mm 2 mps 663 mmHg 81%
    19:00 +23°C° 0.1 mm 2 mps 663 mmHg 91%
    20:00 +22°C° 0 mm 1 mps 664 mmHg 93%
    21:00 +21°C° 0 mm 1 mps 664 mmHg 94%
    22:00 +21°C° 0 mm 1 mps 664 mmHg 96%
    23:00 +20°C° 0 mm 1 mps 664 mmHg 96%

    Tomorrow, 27 February, Thursday

    Time Temperature Precipitation Wind Pressure Humidity
    00:00 +20°C° 0 mm 1 mps 664 mmHg 97%
    01:00 +20°C° 0 mm 1 mps 664 mmHg 97%
    02:00 +19°C° 0 mm 1 mps 663 mmHg 97%
    03:00 +19°C° 0 mm 1 mps 663 mmHg 97%
    04:00 +17°C° 0 mm 0 mps 663 mmHg 97%
    05:00 +19°C° 0 mm 1 mps 663 mmHg 95%
    06:00 +20°C° 0 mm 1 mps 664 mmHg 94%
    07:00 +20°C° 0 mm 1 mps 665 mmHg 93%
    08:00 +23°C° 0 mm 1 mps 665 mmHg 83%
    09:00 +25°C° 0 mm 1 mps 666 mmHg 73%
    10:00 +27°C° 0 mm 1 mps 667 mmHg 64%
    11:00 +28°C° 0 mm 2 mps 666 mmHg 61%
    12:00 +29°C° 0 mm 2 mps 666 mmHg 59%
    13:00 +30°C° 0 mm 2 mps 665 mmHg 56%
    14:00 +29°C° 0.2 mm 2 mps 665 mmHg 60%
    15:00 +29°C° 0.2 mm 2 mps 664 mmHg 64%
    16:00 +28°C° 0.2 mm 2 mps 663 mmHg 68%
    17:00 +26°C° 0.1 mm 2 mps 664 mmHg 74%
    18:00 +25°C° 0.1 mm 2 mps 664 mmHg 80%
    19:00 +23°C° 0.1 mm 1 mps 664 mmHg 86%
    20:00 +22°C° 0 mm 1 mps 664 mmHg 88%
    21:00 +22°C° 0 mm 1 mps 664 mmHg 89%
    22:00 +21°C° 0 mm 1 mps 664 mmHg 91%
    23:00 +21°C° 0 mm 1 mps 664 mmHg 90%

    Day after tomorrow, 28 February, Friday

    Time Temperature Precipitation Wind Pressure Humidity
    00:00 +20°C° 0 mm 1 mps 664 mmHg 90%
    01:00 +20°C° 0 mm 1 mps 664 mmHg 89%
    02:00 +20°C° 0 mm 1 mps 664 mmHg 91%
    03:00 +20°C° 0 mm 1 mps 663 mmHg 94%
    04:00 +19°C° 0 mm 1 mps 663 mmHg 96%
    05:00 +20°C° 0 mm 1 mps 664 mmHg 95%
    06:00 +20°C° 0 mm 1 mps 664 mmHg 95%
    07:00 +21°C° 0 mm 1 mps 665 mmHg 94%
    08:00 +23°C° 0 mm 1 mps 665 mmHg 85%
    09:00 +25°C° 0 mm 1 mps 666 mmHg 76%
    10:00 +27°C° 0 mm 1 mps 667 mmHg 67%
    11:00 +27°C° 0.3 mm 1 mps 666 mmHg 67%
    12:00 +28°C° 0.3 mm 2 mps 666 mmHg 67%
    13:00 +28°C° 0.3 mm 2 mps 665 mmHg 67%
    14:00 +28°C° 0.8 mm 2 mps 665 mmHg 72%
    15:00 +27°C° 0.8 mm 2 mps 664 mmHg 76%
    16:00 +27°C° 0.8 mm 2 mps 664 mmHg 80%
    17:00 +25°C° 0.3 mm 2 mps 664 mmHg 85%
    18:00 +23°C° 0.3 mm 1 mps 664 mmHg 90%
    19:00 +22°C° 0.3 mm 1 mps 664 mmHg 94%
    20:00 +21°C° 0.1 mm 1 mps 664 mmHg 95%
    21:00 +21°C° 0.1 mm 1 mps 664 mmHg 95%
    22:00 +21°C° 0.1 mm 1 mps 665 mmHg 96%
    23:00 +20°C° 0 mm 1 mps 664 mmHg 96%

    29 February, Saturday

    Time Temperature Precipitation Wind Pressure Humidity
    00:00 +20°C° 0 mm 1 mps 664 mmHg 96%
    01:00 +20°C° 0 mm 1 mps 663 mmHg 96%
    02:00 +20°C° 0 mm 1 mps 663 mmHg 96%
    03:00 +20°C° 0 mm 1 mps 663 mmHg 96%
    04:00 +20°C° 0 mm 1 mps 663 mmHg 96%
    05:00 +20°C° 0 mm 1 mps 664 mmHg 96%
    06:00 +19°C° 0 mm 0 mps 664 mmHg 95%
    07:00 +19°C° 0 mm 0 mps 665 mmHg 95%
    08:00 +20°C° 0 mm 0 mps 665 mmHg 91%
    09:00 +22°C° 0 mm 1 mps 666 mmHg 88%
    10:00 +23°C° 0 mm 1 mps 666 mmHg 84%
    11:00 +24°C° 0 mm 1 mps 666 mmHg 80%
    12:00 +24°C° 0 mm 1 mps 665 mmHg 76%
    13:00 +25°C° 0 mm 2 mps 665 mmHg 72%
    14:00 +24°C° 0 mm 2 mps 664 mmHg 75%
    15:00 +24°C° 0 mm 2 mps 664 mmHg 78%
    16:00 +22°C° 0 mm 3 mps 663 mmHg 81%
    17:00 +22°C° 0 mm 3 mps 664 mmHg 82%
    18:00 +21°C° 0 mm 3 mps 664 mmHg 84%
    19:00 +21°C° 0 mm 3 mps 665 mmHg 86%
    20:00 +20°C° 0 mm 3 mps 665 mmHg 87%
    21:00 +20°C° 0 mm 2 mps 666 mmHg 87%
    22:00 +20°C° 0 mm 2 mps 666 mmHg 88%
    23:00 +19°C° 0 mm 2 mps 666 mmHg 91%

    1 March, Sunday

    Time Temperature Precipitation Wind Pressure Humidity
    00:00 +19°C° 0 mm 3 mps 666 mmHg 94%
    01:00 +19°C° 0 mm 3 mps 666 mmHg 96%
    02:00 +19°C° 0 mm 3 mps 665 mmHg 95%
    03:00 +19°C° 0 mm 2 mps 665 mmHg 95%
    04:00 +18°C° 0 mm 2 mps 665 mmHg 94%
    05:00 +19°C° 0 mm 2 mps 666 mmHg 93%
    06:00 +19°C° 0 mm 2 mps 666 mmHg 92%
    07:00 +19°C° 0 mm 2 mps 666 mmHg 91%
    08:00 +21°C° 0 mm 2 mps 667 mmHg 85%
    09:00 +23°C° 0 mm 2 mps 667 mmHg 79%
    10:00 +25°C° 0 mm 2 mps 667 mmHg 72%
    11:00 +26°C° 0.1 mm 2 mps 667 mmHg 68%
    12:00 +27°C° 0.1 mm 2 mps 666 mmHg 64%
    13:00 +29°C° 0.1 mm 2 mps 666 mmHg 59%
    14:00 +28°C° 0.4 mm 2 mps 665 mmHg 62%
    15:00 +28°C° 0.4 mm 2 mps 665 mmHg 66%
    16:00 +27°C° 0.4 mm 2 mps 664 mmHg 69%
    17:00 +25°C° 0.2 mm 2 mps 664 mmHg 76%
    18:00 +23°C° 0.2 mm 2 mps 664 mmHg 84%
    19:00 +20°C° 0.2 mm 2 mps 664 mmHg 92%
    20:00 +20°C° 0 mm 2 mps 664 mmHg 93%
    21:00 +19°C° 0 mm 2 mps 665 mmHg 95%
    22:00 +19°C° 0 mm 2 mps 665 mmHg 97%
    23:00 +19°C° 0 mm 2 mps 665 mmHg 97%

    2 March, Monday

    Time Temperature Precipitation Wind Pressure Humidity
    00:00 +18°C° 0 mm 2 mps 664 mmHg 96%
    01:00 +18°C° 0 mm 2 mps 664 mmHg 96%
    02:00 +19°C° 0 mm 1 mps 664 mmHg 96%
    03:00 +18°C° 0 mm 1 mps 664 mmHg 96%
    04:00 +18°C° 0 mm 1 mps 663 mmHg 96%
    05:00 +17°C° 0 mm 0 mps 664 mmHg 94%
    06:00 +17°C° 0 mm 0 mps 664 mmHg 91%
    07:00 +18°C° 0 mm 0 mps 665 mmHg 89%
    08:00 +20°C° 0 mm 0 mps 665 mmHg 78%
    09:00 +25°C° 0 mm 1 mps 666 mmHg 67%
    10:00 +28°C° 0 mm 1 mps 667 mmHg 56%
    11:00 +29°C° 0 mm 1 mps 667 mmHg 52%
    12:00 +30°C° 0 mm 1 mps 666 mmHg 47%
    13:00 +31°C° 0 mm 1 mps 666 mmHg 43%
    14:00 +31°C° 0 mm 1 mps 665 mmHg 45%
    15:00 +28°C° 0 mm 0 mps 665 mmHg 47%
    16:00 +28°C° 0 mm 0 mps 664 mmHg 49%
    17:00 +26°C° 0 mm 0 mps 664 mmHg 54%
    18:00 +23°C° 0 mm 0 mps 664 mmHg 59%
    19:00 +23°C° 0 mm 1 mps 664 mmHg 63%
    20:00 +22°C° 0 mm 1 mps 664 mmHg 68%
    21:00 +22°C° 0 mm 1 mps 664 mmHg 74%
    22:00 +21°C° 0 mm 1 mps 665 mmHg 79%
    23:00 +20°C° 0 mm 1 mps 665 mmHg 82%
    Show more